TimeMDT,TemperatureF,Dew PointF,Humidity,Sea Level PressureIn,VisibilityMPH,Wind Direction,Wind SpeedMPH,Gust SpeedMPH,PrecipitationIn,Events,Conditions,WindDirDegrees,DateUTC
12:53 AM,78.1,39.9,25,29.85,10.0,South,9.2,-,N/A,,Clear,190,2013-08-21 06:53:00
1:53 AM,75.9,42.1,30,29.85,10.0,SSW,12.7,21.9,N/A,,Clear,210,2013-08-21 07:53:00
2:53 AM,73.9,45.0,35,29.86,10.0,South,19.6,27.6,N/A,,Clear,190,2013-08-21 08:53:00
3:53 AM,72.0,46.9,41,29.86,10.0,South,17.3,-,N/A,,Partly Cloudy,190,2013-08-21 09:53:00
4:53 AM,70.0,46.9,44,29.87,10.0,SSW,10.4,-,N/A,,Clear,200,2013-08-21 10:53:00
5:53 AM,69.1,46.0,44,29.88,10.0,SSW,5.8,-,N/A,,Mostly Cloudy,200,2013-08-21 11:53:00
6:53 AM,66.0,43.0,43,29.90,10.0,NW,10.4,-,N/A,,Clear,310,2013-08-21 12:53:00
7:53 AM,68.0,46.9,47,29.93,10.0,North,5.8,-,N/A,,Scattered Clouds,360,2013-08-21 13:53:00
8:53 AM,73.0,48.9,42,29.94,10.0,NW,11.5,-,N/A,,Clear,320,2013-08-21 14:53:00
9:53 AM,77.0,46.0,33,29.94,10.0,NNW,6.9,-,N/A,,Partly Cloudy,340,2013-08-21 15:53:00
10:53 AM,75.9,42.1,30,29.96,10.0,East,4.6,-,N/A,,Mostly Cloudy,90,2013-08-21 16:53:00
11:53 AM,77.0,42.1,29,29.95,10.0,South,6.9,-,N/A,,Scattered Clouds,170,2013-08-21 17:53:00
12:53 PM,82.0,37.9,21,29.95,10.0,North,11.5,18.4,N/A,,Clear,10,2013-08-21 18:53:00
1:53 PM,82.0,39.0,22,29.94,10.0,NNE,16.1,21.9,N/A,,Mostly Cloudy,30,2013-08-21 19:53:00
2:53 PM,81.0,39.0,22,29.95,10.0,NNE,4.6,-,N/A,,Mostly Cloudy,30,2013-08-21 20:53:00
3:53 PM,81.0,39.9,23,29.95,10.0,ESE,9.2,-,N/A,,Clear,110,2013-08-21 21:53:00
4:53 PM,81.0,41.0,24,29.94,10.0,East,8.1,-,N/A,,Scattered Clouds,80,2013-08-21 22:53:00
5:53 PM,82.0,37.9,21,29.94,10.0,NNE,6.9,-,N/A,,Mostly Cloudy,30,2013-08-21 23:53:00
6:53 PM,80.1,41.0,25,29.96,10.0,NNE,9.2,-,N/A,,Mostly Cloudy,20,2013-08-22 00:53:00
7:53 PM,77.0,42.1,29,29.96,10.0,NNE,6.9,-,N/A,,Clear,30,2013-08-22 01:53:00
8:53 PM,72.0,48.9,44,29.99,10.0,NNE,8.1,-,0.00,Rain,Light Rain,20,2013-08-22 02:53:00
9:53 PM,70.0,50.0,49,30.01,10.0,NNE,3.5,-,0.00,,Mostly Cloudy,30,2013-08-22 03:53:00
10:53 PM,71.1,48.0,44,30.02,10.0,NNE,3.5,-,N/A,,Overcast,20,2013-08-22 04:53:00
11:53 PM,66.9,46.9,49,30.04,10.0,NW,9.2,-,N/A,,Mostly Cloudy,310,2013-08-22 05:53:00